Weather Roundup
Issued by NWS Chicago, IL

Home | Current Version | Previous Version | Text Only | Print | Product List | Glossary On
Versions: 1 2 3 4 5 6 7 8 9 10 11 12 13 14 15 16 17 18 19 20 21 22 23 24 25 26 27 28 29 30 31 32 33 34 35 36 37 38 39 40 41 42 43 44 45 46 47 48 49 50
000
NZUS59 KLOT 301103
HRRLOT

CHICAGO AREA WEATHER ROUNDUP
NATIONAL WEATHER SERVICE CHICAGO/ROMEOVILLE IL
600 AM CDT SUN APR 30 2017

NOTE: "FAIR" INDICATES FEW OR NO CLOUDS BELOW 12,000 FEET WITH NO
SIGNIFICANT WEATHER AND/OR OBSTRUCTIONS TO VISIBILITY.

* THESE STATIONS ARE NOT UNDER NWS QUALITY CONTROL. THEY ALSO MAY NOT
  REPORT WEATHER SUCH AS PRECIPITATION OR FOG.

ILZ005-006-012>014-019>023-301200-
NORTHEAST ILLINOIS

CITY           SKY/WX    TMP DP  RH WIND       PRES   REMARKS
OHARE          DRIZZLE   42  41  96 NE14      29.92R
MIDWAY         LGT RAIN  44  43  96 NE9G20    29.92R FOG
AURORA         LGT RAIN  43  41  93 NE14      29.92R FOG
LANSING*       LGT RAIN  45  45 100 NE5       29.91R
JOLIET*        LGT RAIN  45  45  99 NE7       29.91R
WAUKEGAN       CLOUDY    40  40 100 NE16G23   29.94F FOG
DUPAGE AIRPORT LGT RAIN  42  42 100 NE12      29.92R FOG
WHEELING       CLOUDY    41  41 100 NE10      29.95R FOG
KANKAKEE*      RAIN      47  47  98 CALM      29.88F
MORRIS*        RAIN      44  43  96 CALM      29.90S
NORTHERLY ISL    N/A     43  42  97 N12         N/A
$$

WIZ051-052-058>065-066-070>072-301200-
SOUTHEAST WISCONSIN

CITY           SKY/WX    TMP DP  RH WIND       PRES   REMARKS
MILWAUKEE      LGT RAIN  41  40  96 NE16G24   30.00F FOG
KENOSHA*       CLOUDY    41  39  93 NE18G26   29.96F FOG
RACINE*        CLOUDY    41  39  93 NE17G26   29.99F FOG
WAUKESHA       CLOUDY    37  37 100 NE21      30.01R FOG
WEST BEND      LGT RAIN  37  37 100 E16G24    30.02F
$$

INZ001>003-010>013-019-020-301200-
NORTHWEST INDIANA

CITY           SKY/WX    TMP DP  RH WIND       PRES   REMARKS
GARY*          LGT RAIN  48  46  93 CALM      29.91S
MICHIGAN CITY* NOT AVBL
RENSSELAER*    NOT AVBL
VALPARAISO     CLOUDY    48  46  93 E10       29.90R
$$

LMZ740>746-301200-
SOUTHERN LAKE MICHIGAN

STATION/POSITION TIME  SKY/WX   TEMP WIND        PRES    VSBY
                                AIR  DIR/SP/G
                 (UTC)          (F)  (DEG/KT/KT) (MB)    (MI)
HARRISON CRIB    1030            43   40/ 19/ 20   N/A
BURNHAM HARBOR   1100            43   20/ 12/ 18   N/A
CALUMET HARBOR   1030            44   20/ 11/ 14 1012.3R
BURNS HARBOR     1040            47     CALM     1012.9S
MICHIGAN CITY    1040            45   80/  7/  8   N/A
$$

ABBREVIATIONS USED IN REMARKS
   TC - TEMPERATURE IN CELSIUS
  WCI - WIND CHILL INDEX
   HX - HEAT INDEX
  VSB - VISIBILITY
$$



USA.gov is the U.S. government's official web portal to all federal, state and local government web resources and services.